Moab, UT

10:08 AM MDT on April 28, 2017 (GMT -0600)
Canyonlands

Weather History for KCNY - May, 2013

Change the Weather History Date:

Friday, May 31, 2013

  Actual Average Record
Temperature  
Mean Temperature 64 °F 68 °F  
Max Temperature 80 °F 85 °F 102 °F (2002)
Min Temperature 48 °F 51 °F 39 °F (1988)
Degree Days  
Heating Degree Days 1 2  
Month to date heating degree days 116 135  
Since 1 July heating degree days 6046 5560  
Cooling Degree Days 0 4  
Month to date cooling degree days 79 61  
Year to date cooling degree days 80 64  
Growing Degree Days 14 (Base 50)    
Moisture  
Dew Point 14 °F    
Average Humidity 17    
Maximum Humidity 30    
Minimum Humidity 4    
Precipitation  
Precipitation 0.00 in 0.02 in 1.30 in (1993)
Month to date precipitation 0.61 0.58  
Year to date precipitation 1.72 3.20  
Sea Level Pressure  
Sea Level Pressure 29.89 in    
Wind  
Wind Speed 13 mph (WNW)    
Max Wind Speed 29 mph    
Max Gust Speed 35 mph    
Visibility 10 miles    
Events      
T = Trace of Precipitation, MM = Missing Value Source: NWS Daily Summary

Daily Weather History Graph

Daily Weather History Graph

Search for Another Location

Airport or City:

Trip Planner

Search our weather history database for the weather conditions in past years. The results will help you decide how hot, cold, wet, or windy it might be!

Date:

Astronomy

May. 31, 2013 Rise Set
Actual Time 5:56 AM MDT 8:37 PM MDT
Civil Twilight 5:25 AM MDT 9:08 PM MDT
Nautical Twilight 4:45 AM MDT 9:48 PM MDT
Astronomical Twilight 4:02 AM MDT 10:32 PM MDT
Moon 1:17 AM MDT (5/31) 1:11 PM MDT (5/31)
Length of Visible Light 15h 43m
Length of Day
14h 41m
Waning Gibbous, 51% of the Moon is Illuminated
May 31
Waning Gibbous
May 31
Last Quarter
Jun 8
New
Jun 16
First Quarter
Jun 23
Full

Hourly Weather History & Observations

Time (MDT) Temp. Dew Point Humidity Pressure Visibility Wind Dir Wind Speed Gust Speed Precip Events Conditions
12:53 AM 62.1 °F 18.0 °F 18% 29.79 in 10.0 mi East 4.6 mph - N/A   Clear
1:53 AM 57.0 °F 18.0 °F 22% 29.81 in 10.0 mi WSW 5.8 mph - N/A   Clear
2:53 AM 54.0 °F 18.0 °F 24% 29.81 in 10.0 mi WSW 4.6 mph - N/A   Clear
3:53 AM 50.0 °F 18.0 °F 28% 29.83 in 10.0 mi Calm Calm - N/A   Clear
4:53 AM 54.0 °F 19.9 °F 26% 29.85 in 10.0 mi West 3.5 mph - N/A   Clear
5:53 AM 54.0 °F 19.9 °F 26% 29.86 in 10.0 mi Calm Calm - N/A   Clear
6:53 AM 52.0 °F 21.0 °F 30% 29.90 in 10.0 mi NW 4.6 mph - N/A   Clear
7:53 AM 57.9 °F 23.0 °F 26% 29.92 in 10.0 mi Calm Calm - N/A   Clear
8:53 AM 66.0 °F 25.0 °F 21% 29.92 in 10.0 mi NNW 12.7 mph 21.9 mph N/A   Clear
9:53 AM 66.9 °F 23.0 °F 19% 29.94 in 10.0 mi NW 13.8 mph 26.5 mph N/A   Clear
10:53 AM 70.0 °F 21.9 °F 16% 29.93 in 10.0 mi WNW 19.6 mph 32.2 mph N/A   Clear
11:53 AM 71.1 °F 21.9 °F 16% 29.96 in 10.0 mi WNW 19.6 mph 26.5 mph N/A   Clear
12:53 PM 72.0 °F 21.9 °F 15% 29.92 in 10.0 mi NNW 10.4 mph 17.3 mph N/A   Clear
1:53 PM 75.0 °F 15.1 °F 10% 29.91 in 10.0 mi NW 17.3 mph 26.5 mph N/A   Clear
2:53 PM 75.0 °F 17.1 °F 11% 29.89 in 10.0 mi WNW 9.2 mph 24.2 mph N/A   Clear
3:53 PM 78.1 °F 5.0 °F 6% 29.88 in 10.0 mi NW 23.0 mph 34.5 mph N/A   Clear
4:53 PM 78.1 °F -5.1 °F 4% 29.86 in 10.0 mi NW 19.6 mph 28.8 mph N/A   Clear
5:53 PM 77.0 °F -2.9 °F 4% 29.86 in 10.0 mi WNW 18.4 mph 29.9 mph N/A   Clear
6:53 PM 75.9 °F -2.0 °F 5% 29.87 in 10.0 mi NW 21.9 mph 27.6 mph N/A   Clear
7:53 PM 73.0 °F -0.0 °F 6% 29.88 in 10.0 mi WNW 16.1 mph 23.0 mph N/A   Clear
8:53 PM 69.1 °F 3.0 °F 7% 29.90 in 10.0 mi WNW 16.1 mph - N/A   Clear
9:53 PM 66.0 °F 9.0 °F 11% 29.93 in 10.0 mi WNW 12.7 mph - N/A   Clear
10:53 PM 64.0 °F 10.9 °F 13% 29.96 in 10.0 mi WNW 16.1 mph - N/A   Clear
11:53 PM 62.1 °F 12.0 °F 14% 29.98 in 10.0 mi WNW 17.3 mph - N/A   Clear